THOR ABLESTAR DEB, 2432

Orbit data source: Space-Track

THOR ABLESTAR DEB, 2432 is space debris in LEO originally from a launch on Thu, 05 Dec 1963 UTC launched from the Air Force Western Test Range (AFWTR). Debris objects in space refer to the collection of defunct objects orbiting the Earth. Examples of debris include non-operational satellites, rocket bodies, and fragments generated from explosions, collisions, or faulty payload assembly.

Loading next visibility...
Identifier
2432, 1963-049G
Orbit
LEO
Country
Flag of USUS
Related business
Manufacturer
Unknown
Mission
Spacecraft
Bus & Motor
Unknown
Mass
Unknown
Launch date (UTC)
1963-12-05 (62 years ago)
Launch vehicle
Unknown
Launch site
Air Force Western Test Range (AFWTR)
Object type
Payload
Rocket body
Debris
Shape & HBR
Unknown
Radar Cross Section
Medium (>0.1 m² and <1 m²)

Expand to show TLE details & history
Last TLE update: 8 hours ago

TLE from 8 hours ago
0 THOR ABLESTAR DEB
1 02432U 63049G   25260.91399222  .00000108  00000-0  15903-3 0  9995
2 02432  89.9134  72.8608 0032502 300.6930 182.9393 13.48202931 36019
Epoch: 2025-09-17T21:56Z
TLE epoch observation values (Epoch: 2025-09-17T21:56:08.927Z)
Latitude
56.47931°
Longitude
-73.38957°
Altitude
1,112.6 km
Speed
7.29 km/s
True Right ascension
16h 50m 55s
True Declination
56° 19' 42"
Sunlit
Object was in daylight at epoch
Visualization orbit readout
Latitude
Unknown
Longitude
Unknown
Altitude
Unknown
Speed
Unknown
Apparent Right ascension
Unknown
Apparent Declination
Unknown
Sunlit
N/A
Visualization observer readout
Local Sidereal Time
22:15:36
Azimuth
Unknown
Elevation
Unknown
Doppler factor
Unknown
Orbital elements
Apogee altitude
1,100.157 km
Perigee altitude
1,051.703 km
Semi-major axis
7,454.067 km
Eccentricity
0.00325
Inclination
89.9134°
RAAN
72.8608°
Arg. of periapsis
300.693°
True anomaly
182.92028°
Mean anomaly
182.9393°
Eccentric anomaly
182.92978°
Mean motion
3.37251 °/min
Orbital period
106.75 mins
BSTAR
0.00015903
Loading maneuver chart data...
Computing Atmospheric mass density...
Loading historical data...
Loading historical data...
Loading historical data...
Loading historical data...
Loading historical data...
Loading historical data...
Loading historical data...

Documentation

Showing up to 5 results
|